QPF
0.00 0.00 0.00 0.00 0.00 0.00 0.00 0.00 0.00 0.00 0.00 0.00 0.00 0.00 0.00 0.00 0.00 0.00 0.00 0.00 0.00 0.00 0.00 0.00 0.00 0.00 0.00 0.00 0.00 0.00 0.00 0.00 0.00 0.00 0.00 0.00 0.00 0.00 0.00 0.00 0.00 0.00 0.00 0.00 0.00 0.00 0.00
0.00 0.00 0.00 0.00 0.00 0.00 0.00 0.00 0.00 0.00 0.00 0.00 0.00 0.00 0.00 0.00 0.00 0.00 0.00 0.00 0.00 0.00 0.00 0.00 0.00 0.00 0.00 0.00 0.00 0.00 0.00 0.00 0.00 0.00 0.00 0.00 0.00 0.00 0.00 0.00 0.00 0.00 0.00 0.00 0.00 0.00 0.00
0.00 0.00 0.00 0.00 0.00 0.00 0.00 0.00 0.00 0.00 0.00 0.00 0.00 0.00 0.00 0.00 0.00 0.00 0.00 0.00 0.00 0.00 0.00 0.00 0.00 0.00 0.00 0.00 0.00 0.00 0.00 0.00 0.00 0.00 0.00 0.00 0.00 0.00 0.00 0.00 0.00 0.00 0.00 0.00 0.00 0.00 0.00
0.00 0.00 0.00 0.00 0.00 0.00 0.00 0.00 0.00 0.00 0.00 0.00 0.00 0.00 0.00 0.00 0.00 0.00 0.00 0.00 0.00 0.00 0.00 0.00 0.00 0.00 0.00 0.00 0.00 0.00 0.00 0.00 0.00 0.00 0.00 0.00 0.00 0.00 0.00 0.00 0.00 0.00 0.00 0.00 0.00 0.00 0.00
0.00 0.00 0.00 0.00 0.00 0.00 0.00 0.00 0.00 0.00 0.00 0.00 0.00 0.00 0.00 0.00 0.00 0.00 0.00 0.00 0.00 0.00 0.00 0.00 0.00 0.00 0.00 0.00 0.00 0.00 0.00 0.00 0.00 0.00 0.00 0.00 0.00 0.00 0.00 0.00 0.00 0.00 0.00 0.00 0.00 0.00 0.00
0.00 0.00 0.00 0.00 0.00 0.00 0.00 0.00 0.00 0.00 0.00 0.00 0.00 0.00 0.00 0.00 0.00 0.00 0.00 0.00 0.00 0.00 0.00 0.00 0.00 0.00 0.00 0.00 0.00 0.00 0.00 0.00 0.00 0.00 0.00 0.00 0.00 0.00 0.00 0.00 0.00 0.00 0.00 0.00 0.00 0.00 0.00
0.00 0.00 0.00 0.00 0.00 0.00 0.00 0.00 0.00 0.00 0.00 0.00 0.00 0.00 0.00 0.00 0.00 0.00 0.00 0.00 0.00 0.00 0.00 0.00 0.00 0.00 0.00 0.00 0.00 0.00 0.00 0.00 0.00 0.00 0.00 0.00 0.00 0.00 0.00 0.00 0.00 0.00 0.00 0.00 0.00 0.00 0.00
0.00 0.00 0.00 0.00 0.00 0.00 0.00 0.00 0.00 0.00 0.00 0.00 0.00 0.00 0.00 0.00 0.00 0.00 0.00 0.00 0.00 0.00 0.00 0.00 0.00 0.00 0.00 0.00 0.00 0.00 0.00 0.00 0.00 0.00 0.00 0.00 0.00 0.00 0.00 0.00 0.00 0.00 0.00 0.00 0.00 0.00 0.00
0.00 0.00 0.00 0.00 0.00 0.00 0.00 0.00 0.00 0.00 0.00 0.00 0.00 0.00 0.00 0.00 0.00 0.00 0.00 0.00 0.00 0.00 0.00 0.00 0.00 0.00 0.00 0.00 0.00 0.00 0.00 0.00 0.00 0.00 0.00 0.00 0.00 0.00 0.00 0.00 0.00 0.00 0.00 0.00 0.00 0.00 0.00
0.00 0.00 0.00 0.00 0.00 0.00 0.00 0.00 0.00 0.00 0.00 0.00 0.00 0.00 0.00 0.00 0.00 0.00 0.00 0.00 0.00 0.00 0.00 0.00 0.00 0.00 0.00 0.00 0.00 0.00 0.00 0.00 0.00 0.00 0.00 0.00 0.00 0.00 0.00 0.00 0.00 0.00 0.00 0.00 0.00 0.00 0.00
0.00 0.00 0.00 0.00 0.00 0.00 0.00 0.00 0.00 0.00 0.00 0.00 0.00 0.00 0.00 0.00 0.00 0.00 0.00 0.00 0.00 0.00 0.00 0.00 0.00 0.00 0.00 0.00 0.00 0.00 0.00 0.00 0.00 0.00 0.00 0.00 0.00 0.00 0.00 0.00 0.00 0.00 0.00 0.00 0.00 0.00 0.00
0.00 0.00 0.00 0.00 0.00 0.00 0.00 0.00 0.00 0.00 0.00 0.00 0.00 0.00 0.00 0.00 0.00 0.00 0.00 0.00 0.00 0.00 0.00 0.00 0.00 0.00 0.00 0.00 0.00 0.00 0.00 0.00 0.00 0.00 0.00 0.00 0.00 0.00 0.00 0.00 0.00 0.00 0.00 0.00 0.00 0.00 0.00
0.00 0.00 0.00 0.00 0.00 0.00 0.00 0.00 0.00 0.00 0.00 0.00 0.00 0.00 0.00 0.00 0.00 0.00 0.00 0.00 0.00 0.00 0.00 0.00 0.00 0.00 0.00 0.00 0.00 0.00 0.00 0.00 0.00 0.00 0.00 0.00 0.00 0.00 0.00 0.00 0.00 0.00 0.00 0.00 0.00 0.00 0.00
0.00 0.00 0.00 0.00 0.00 0.00 0.00 0.00 0.00 0.00 0.00 0.00 0.00 0.00 0.00 0.00 0.00 0.00 0.00 0.00 0.00 0.00 0.00 0.00 0.00 0.00 0.00 0.00 0.00 0.00 0.00 0.00 0.00 0.00 0.00 0.00 0.00 0.00 0.00 0.00 0.00 0.00 0.00 0.00 0.00 0.00 0.00
0.00 0.00 0.00 0.00 0.00 0.00 0.00 0.00 0.00 0.00 0.00 0.00 0.00 0.00 0.00 0.00 0.00 0.00 0.00 0.00 0.00 0.00 0.00 0.00 0.00 0.00 0.00 0.00 0.00 0.00 0.00 0.00 0.00 0.00 0.00 0.00 0.00 0.00 0.00 0.00 0.00 0.00 0.00 0.00 0.00 0.00 0.00
0.00 0.00 0.00 0.00 0.00 0.00 0.00 0.00 0.00 0.00 0.00 0.00 0.00 0.00 0.00 0.00 0.00 0.00 0.00 0.00 0.00 0.00 0.00 0.00 0.00 0.00 0.00 0.00 0.00 0.00 0.00 0.00 0.00 0.00 0.00 0.00 0.00 0.00 0.00 0.00 0.00 0.00 0.00 0.00 0.00 0.00 0.00
0.00 0.00 0.00 0.00 0.00 0.00 0.00 0.00 0.00 0.00 0.00 0.00 0.00 0.00 0.00 0.00 0.00 0.00 0.00 0.00 0.00 0.00 0.00 0.00 0.00 0.00 0.00 0.00 0.00 0.00 0.00 0.00 0.00 0.00 0.00 0.00 0.00 0.00 0.00 0.00 0.00 0.00 0.00 0.00 0.00 0.00 0.00
0.00 0.00 0.00 0.00 0.00 0.00 0.00 0.00 0.00 0.00 0.00 0.00 0.00 0.00 0.00 0.00 0.00 0.00 0.00 0.00 0.00 0.00 0.00 0.00 0.00 0.00 0.00 0.00 0.00 0.00 0.00 0.00 0.00 0.00 0.00 0.00 0.00 0.00 0.00 0.00 0.00 0.00 0.00 0.00 0.00 0.00 0.00
0.00 0.00 0.00 0.00 0.00 0.00 0.00 0.00 0.00 0.00 0.00 0.00 0.00 0.00 0.00 0.00 0.00 0.00 0.00 0.00 0.00 0.00 0.00 0.00 0.00 0.00 0.00 0.00 0.00 0.00 0.00 0.00 0.00 0.00 0.00 0.00 0.00 0.00 0.00 0.00 0.00 0.00 0.00 0.00 0.00 0.00 0.00
0.00 0.00 0.00 0.00 0.00 0.00 0.00 0.00 0.00 0.00 0.00 0.00 0.00 0.00 0.00 0.00 0.00 0.00 0.00 0.00 0.00 0.00 0.00 0.00 0.00 0.00 0.00 0.00 0.00 0.00 0.00 0.00 0.00 0.00 0.00 0.00 0.00 0.00 0.00 0.00 0.00 0.00 0.00 0.00 0.00 0.00 0.00
0.00 0.00 0.00 0.00 0.00 0.00 0.00 0.00 0.00 0.00 0.00 0.00 0.00 0.00 0.00 0.00 0.00 0.00 0.00 0.00 0.00 0.00 0.00 0.00 0.00 0.00 0.00 0.00 0.00 0.00 0.00 0.00 0.00 0.00 0.00 0.00 0.00 0.00 0.00 0.00 0.00 0.00 0.00 0.00 0.00 0.00 0.00
0.00 0.00 0.00 0.00 0.00 0.00 0.00 0.00 0.00 0.00 0.00 0.00 0.00 0.00 0.00 0.00 0.00 0.00 0.00 0.00 0.00 0.00 0.00 0.00 0.00 0.00 0.00 0.00 0.00 0.00 0.00 0.00 0.00 0.00 0.00 0.00 0.00 0.00 0.00 0.00 0.00 0.00 0.00 0.00 0.00 0.00 0.00
0.00 0.00 0.00 0.00 0.00 0.00 0.00 0.00 0.00 0.00 0.00 0.00 0.00 0.00 0.00 0.00 0.00 0.00 0.00 0.00 0.00 0.00 0.00 0.00 0.00 0.00 0.00 0.00 0.00 0.00 0.00 0.00 0.00 0.00 0.00 0.00 0.00 0.00 0.00 0.00 0.00 0.00 0.00 0.00 0.00 0.00 0.00
0.00 0.00 0.00 0.00 0.00 0.00 0.00 0.00 0.00 0.00 0.00 0.00 0.00 0.00 0.00 0.00 0.00 0.00 0.00 0.00 0.00 0.00 0.00 0.00 0.00 0.00 0.00 0.00 0.00 0.00 0.00 0.00 0.00 0.00 0.00 0.00 0.00 0.00 0.00 0.00 0.00 0.00 0.00 0.00 0.00 0.00 0.00
0.00 0.00 0.00 0.00 0.00 0.00 0.00 0.00 0.00 0.00 0.00 0.00 0.00 0.00 0.00 0.00 0.00 0.00 0.00 0.00 0.00 0.00 0.00 0.00 0.00 0.00 0.00 0.00 0.00 0.00 0.00 0.00 0.00 0.00 0.00 0.00 0.00 0.00 0.00 0.00 0.00 0.00 0.00 0.00 0.00 0.00 0.01
0.00 0.00 0.00 0.00 0.00 0.00 0.00 0.00 0.00 0.00 0.00 0.00 0.00 0.00 0.00 0.00 0.00 0.00 0.00 0.00 0.00 0.00 0.00 0.00 0.00 0.00 0.00 0.00 0.00 0.00 0.00 0.00 0.00 0.00 0.00 0.00 0.00 0.00 0.00 0.00 0.00 0.00 0.00 0.01 0.01 0.01 0.02
0.00 0.00 0.00 0.00 0.00 0.00 0.00 0.00 0.00 0.00 0.00 0.00 0.00 0.00 0.00 0.00 0.00 0.00 0.00 0.00 0.00 0.00 0.00 0.00 0.00 0.00 0.00 0.00 0.00 0.00 0.00 0.00 0.00 0.00 0.00 0.00 0.00 0.00 0.00 0.00 0.00 0.00 0.00 0.00 0.00 0.00 0.01
0.00 0.00 0.00 0.00 0.00 0.00 0.00 0.00 0.00 0.00 0.00 0.00 0.00 0.00 0.00 0.00 0.00 0.00 0.00 0.00 0.00 0.00 0.00 0.00 0.00 0.00 0.00 0.00 0.00 0.00 0.00 0.00 0.00 0.00 0.00 0.00 0.00 0.00 0.00 0.00 0.00 0.00 0.00 0.00 0.00 0.00 0.00
0.00 0.00 0.00 0.00 0.00 0.00 0.00 0.00 0.00 0.00 0.00 0.00 0.00 0.00 0.00 0.00 0.00 0.00 0.00 0.00 0.00 0.00 0.00 0.00 0.00 0.00 0.00 0.00 0.00 0.00 0.00 0.00 0.00 0.00 0.00 0.00 0.00 0.00 0.00 0.00 0.00 0.00 0.00 0.00 0.00 0.00 0.00
MSLP
1022.62 1022.29 1021.97 1021.66 1021.41 1021.11 1020.75 1020.37 1019.96 1019.54 1019.12 1018.69 1018.26 1017.83 1017.38 1016.95 1016.53 1016.11 1015.75 1015.48 1015.25 1014.98 1014.72 1014.47 1014.19 1013.90 1012.96 1011.93 1008.34 1006.56 1006.79 1007.08 1007.32 1007.37 1007.33 1006.63 1005.91 1005.11 1004.43 1003.68 1003.13 1003.11 1003.18 1003.09 1002.97 1002.92 1003.02
1022.77 1022.46 1022.13 1021.78 1021.47 1021.17 1020.79 1020.37 1019.97 1019.55 1019.09 1018.61 1018.15 1017.70 1017.21 1016.74 1016.32 1015.88 1015.45 1015.15 1015.01 1014.75 1014.48 1014.32 1014.10 1013.89 1013.22 1010.00 1005.75 1006.02 1006.49 1007.13 1006.85 1007.08 1006.80 1006.14 1005.51 1004.77 1004.39 1004.04 1003.71 1003.20 1003.13 1003.10 1002.85 1002.82 1002.95
1022.91 1022.58 1022.23 1021.88 1021.54 1021.19 1020.79 1020.36 1019.92 1019.50 1019.05 1018.56 1018.08 1017.62 1017.10 1016.62 1016.11 1015.65 1015.24 1014.90 1014.65 1014.42 1014.19 1014.12 1013.99 1013.50 1011.83 1008.22 1005.35 1005.66 1005.99 1006.34 1006.42 1006.51 1006.43 1005.49 1005.24 1005.02 1004.96 1004.67 1003.74 1003.38 1003.38 1002.92 1002.64 1002.65 1002.88
1022.93 1022.67 1022.32 1021.96 1021.61 1021.23 1020.81 1020.37 1019.90 1019.43 1018.94 1018.44 1017.93 1017.47 1016.95 1016.44 1015.92 1015.39 1014.91 1014.56 1014.23 1013.98 1013.81 1013.78 1013.75 1013.08 1010.27 1005.80 1005.44 1005.43 1005.38 1005.79 1005.95 1005.99 1005.94 1005.46 1005.12 1005.35 1005.41 1004.85 1004.26 1003.90 1003.55 1003.35 1002.46 1002.41 1002.72
1022.98 1022.67 1022.36 1022.00 1021.63 1021.22 1020.81 1020.36 1019.86 1019.37 1018.87 1018.32 1017.78 1017.29 1016.78 1016.20 1015.67 1015.14 1014.55 1014.08 1013.73 1013.49 1013.40 1013.46 1013.42 1012.34 1008.53 1005.52 1005.45 1005.21 1005.01 1005.29 1005.56 1005.73 1005.63 1005.29 1005.66 1006.19 1005.89 1005.61 1005.06 1003.92 1003.56 1003.26 1002.67 1002.20 1002.45
1023.09 1022.71 1022.38 1022.03 1021.62 1021.20 1020.77 1020.31 1019.80 1019.29 1018.78 1018.20 1017.57 1017.03 1016.54 1016.03 1015.46 1014.86 1014.14 1013.55 1013.05 1013.06 1012.98 1012.79 1011.82 1011.20 1007.46 1005.20 1004.76 1004.76 1004.51 1004.66 1005.30 1005.62 1005.77 1005.78 1006.21 1006.54 1006.17 1005.85 1005.38 1004.07 1003.51 1002.97 1002.77 1002.56 1002.40
1023.17 1022.78 1022.41 1022.02 1021.60 1021.15 1020.71 1020.22 1019.69 1019.15 1018.57 1018.00 1017.34 1016.74 1016.24 1015.78 1015.30 1014.92 1013.91 1012.89 1013.08 1012.42 1011.57 1009.66 1008.14 1006.96 1004.91 1004.11 1004.02 1004.46 1004.41 1004.59 1004.91 1005.53 1006.02 1005.90 1006.53 1006.50 1005.78 1005.14 1004.47 1003.92 1003.47 1003.18 1002.71 1002.20 1002.16
1023.16 1022.79 1022.41 1022.03 1021.57 1021.08 1020.58 1020.09 1019.55 1018.99 1018.39 1017.79 1017.18 1016.44 1015.86 1015.41 1015.08 1014.86 1014.82 1012.64 1009.25 1008.31 1008.04 1006.97 1006.45 1005.82 1004.49 1003.91 1004.29 1004.29 1004.34 1004.93 1005.10 1005.68 1005.81 1006.07 1005.85 1005.23 1004.76 1004.22 1003.88 1003.50 1003.40 1003.48 1002.84 1002.24 1002.34
1023.19 1022.81 1022.37 1022.00 1021.55 1021.04 1020.49 1019.97 1019.37 1018.77 1018.16 1017.52 1016.97 1016.24 1015.55 1014.88 1014.54 1014.47 1012.90 1010.32 1008.04 1007.63 1007.20 1005.05 1004.73 1004.52 1003.68 1003.87 1003.80 1003.79 1004.30 1004.69 1005.07 1005.41 1005.45 1005.48 1004.42 1003.96 1003.88 1003.70 1003.73 1003.57 1003.44 1003.23 1003.04 1002.65 1002.77
1023.23 1022.83 1022.37 1021.96 1021.47 1020.96 1020.44 1019.82 1019.18 1018.55 1017.91 1017.26 1016.68 1016.05 1015.43 1014.43 1013.92 1012.29 1010.58 1007.57 1007.37 1007.27 1006.90 1004.07 1003.77 1003.01 1002.96 1003.46 1003.28 1002.94 1003.50 1004.52 1004.61 1004.81 1004.71 1004.40 1003.44 1003.13 1002.98 1003.09 1003.18 1003.51 1003.07 1003.09 1003.37 1003.67 1003.86
1023.23 1022.80 1022.36 1021.93 1021.39 1020.88 1020.37 1019.72 1019.00 1018.35 1017.63 1016.93 1016.36 1015.87 1015.44 1015.58 1014.36 1011.95 1008.51 1007.13 1007.00 1006.95 1005.90 1002.56 1002.28 1001.58 1002.32 1003.18 1002.45 1002.56 1003.01 1003.79 1004.36 1004.44 1004.52 1003.97 1003.30 1002.86 1002.62 1002.54 1002.58 1002.94 1003.05 1003.57 1003.83 1004.38 1004.69
1023.20 1022.76 1022.35 1021.84 1021.32 1020.76 1020.21 1019.52 1018.76 1018.10 1017.35 1016.57 1015.93 1015.63 1015.29 1014.37 1014.11 1010.24 1008.56 1007.82 1007.19 1007.09 1004.02 1001.92 1001.73 1001.95 1002.45 1002.80 1002.68 1002.59 1003.18 1003.52 1003.87 1004.36 1004.07 1003.47 1002.78 1002.41 1001.88 1001.93 1002.26 1002.67 1003.34 1003.96 1004.43 1005.20 1005.80
1023.19 1022.73 1022.25 1021.79 1021.26 1020.70 1020.07 1019.31 1018.53 1017.73 1016.96 1016.02 1015.19 1015.03 1015.28 1013.84 1010.80 1008.63 1008.41 1008.21 1007.71 1005.64 1001.54 1001.36 1001.70 1001.95 1002.54 1002.87 1002.89 1002.82 1003.22 1003.79 1004.30 1004.46 1004.40 1003.23 1002.38 1001.47 1001.53 1001.87 1002.22 1002.99 1003.95 1004.99 1005.95 1006.23 1005.56
1023.21 1022.74 1022.22 1021.71 1021.15 1020.57 1019.89 1019.10 1018.29 1017.43 1016.47 1015.43 1014.21 1013.44 1012.38 1011.49 1009.71 1009.05 1008.78 1008.35 1006.89 1003.84 1002.24 1000.73 1000.71 1001.36 1001.99 1002.24 1002.47 1002.44 1002.78 1003.42 1003.41 1003.77 1003.85 1003.17 1001.61 1000.33 1000.96 1001.50 1002.14 1002.85 1003.83 1004.96 1006.04 1006.42 1005.06
1023.21 1022.72 1022.21 1021.64 1021.04 1020.42 1019.72 1018.96 1018.10 1017.15 1016.09 1015.08 1013.47 1011.46 1010.71 1008.98 1009.54 1009.64 1009.21 1008.01 1005.18 1003.22 1002.12 1001.17 1000.43 1000.88 1001.33 1001.29 1001.45 1001.89 1002.08 1002.28 1002.12 1002.68 1003.11 1002.42 1001.79 1000.93 1000.68 1001.01 1001.80 1002.49 1003.24 1003.77 1005.18 1005.36 1005.16
1023.19 1022.71 1022.16 1021.58 1020.95 1020.30 1019.58 1018.81 1017.95 1016.90 1015.64 1015.02 1013.92 1011.34 1008.56 1007.24 1008.25 1008.81 1008.67 1007.00 1004.80 1002.82 1001.91 1001.40 1001.03 1000.89 1001.05 1000.79 1001.12 1001.29 1001.45 1001.17 1001.17 1001.17 1001.87 1002.16 1002.44 1001.47 1000.87 1001.15 1001.35 1001.94 1002.60 1003.67 1004.87 1005.95 1005.53
1023.20 1022.70 1022.16 1021.56 1020.90 1020.21 1019.50 1018.73 1017.91 1016.89 1015.32 1014.21 1013.40 1010.32 1006.31 1006.62 1007.44 1008.10 1007.70 1005.92 1004.01 1002.44 1002.08 1001.84 1001.57 1001.68 1001.63 1001.37 1001.49 1001.50 1001.48 1001.45 1001.24 1001.48 1001.80 1002.52 1003.15 1002.79 1002.06 1001.89 1002.00 1002.37 1002.93 1003.79 1004.68 1005.34 1005.60
1023.18 1022.67 1022.12 1021.47 1020.82 1020.14 1019.47 1018.76 1018.04 1017.20 1015.63 1013.52 1012.50 1009.27 1006.25 1006.44 1007.35 1007.16 1006.48 1005.07 1003.49 1002.28 1002.00 1002.02 1001.94 1002.12 1002.17 1002.02 1002.11 1002.08 1002.22 1002.06 1001.99 1002.58 1003.56 1004.17 1004.00 1004.15 1003.37 1002.67 1002.66 1003.06 1003.75 1005.87 1006.36 1005.79 1005.45
1023.14 1022.61 1022.03 1021.36 1020.68 1020.04 1019.38 1018.71 1018.10 1017.60 1017.02 1016.18 1013.20 1008.95 1006.17 1006.22 1006.63 1006.34 1005.23 1004.15 1003.15 1002.75 1002.68 1002.43 1002.46 1002.79 1002.73 1003.00 1003.07 1002.97 1002.93 1002.87 1002.86 1003.70 1004.74 1005.09 1005.20 1005.54 1004.78 1003.81 1003.15 1004.11 1004.17 1004.58 1005.08 1005.63 1006.14
1023.08 1022.52 1021.90 1021.28 1020.68 1020.06 1019.33 1018.53 1017.82 1017.27 1017.07 1016.93 1013.58 1009.23 1006.81 1006.50 1006.36 1006.08 1005.06 1003.58 1003.15 1003.20 1003.33 1003.40 1003.55 1003.51 1003.62 1003.90 1003.75 1003.77 1003.65 1003.59 1003.86 1004.69 1005.18 1005.45 1006.22 1006.85 1007.06 1006.59 1005.95 1005.55 1005.15 1004.85 1005.49 1006.07 1006.43
1023.04 1022.49 1021.91 1021.32 1020.73 1020.08 1019.33 1018.47 1017.62 1016.73 1016.02 1016.07 1012.82 1009.47 1008.43 1006.99 1006.38 1005.95 1004.90 1004.53 1003.58 1003.58 1003.85 1004.18 1004.45 1004.58 1004.96 1005.29 1005.23 1005.65 1005.51 1005.20 1005.21 1005.62 1005.89 1006.39 1007.33 1007.73 1007.68 1007.35 1007.01 1006.85 1006.79 1006.68 1006.96 1006.94 1007.32
1022.98 1022.51 1022.00 1021.43 1020.84 1020.23 1019.49 1018.58 1017.59 1016.36 1015.01 1014.65 1012.72 1011.40 1009.60 1008.15 1006.60 1005.94 1005.37 1005.05 1004.66 1004.57 1004.75 1005.30 1005.76 1005.84 1006.21 1007.22 1007.60 1007.41 1007.11 1006.83 1006.58 1006.74 1006.93 1007.33 1008.04 1008.52 1008.69 1008.37 1008.24 1008.37 1008.43 1008.63 1009.07 1008.99 1008.74
1023.00 1022.54 1022.03 1021.50 1020.95 1020.34 1019.65 1018.91 1018.13 1017.05 1014.91 1014.51 1013.58 1012.19 1011.16 1008.85 1007.44 1006.44 1006.18 1005.88 1005.86 1006.09 1006.17 1006.36 1006.86 1007.17 1007.58 1008.13 1008.07 1007.84 1007.57 1007.35 1007.32 1007.44 1007.73 1008.01 1008.70 1009.52 1009.96 1009.70 1009.51 1010.25 1011.21 1011.07 1011.09 1011.64 1012.27
1022.93 1022.51 1022.05 1021.56 1021.05 1020.53 1019.97 1019.31 1018.64 1018.18 1018.00 1017.03 1014.61 1013.54 1012.02 1010.06 1008.54 1007.68 1007.22 1006.88 1007.21 1007.58 1007.65 1007.47 1007.46 1008.01 1008.67 1008.36 1007.95 1007.40 1007.18 1007.11 1007.15 1007.30 1007.39 1008.36 1009.30 1009.98 1010.89 1010.89 1011.23 1012.38 1012.46 1012.25 1012.26 1012.96 1013.25
1022.85 1022.48 1022.08 1021.65 1021.20 1020.73 1020.17 1019.57 1018.96 1018.42 1017.97 1017.13 1015.34 1014.35 1013.13 1011.57 1009.56 1008.45 1008.05 1008.02 1008.06 1008.36 1008.41 1008.07 1008.44 1008.72 1008.60 1008.46 1008.39 1007.92 1007.46 1007.48 1007.01 1007.21 1007.77 1008.24 1009.46 1010.93 1011.67 1012.18 1011.88 1012.29 1012.95 1013.36 1013.51 1013.70 1013.83
1022.76 1022.44 1022.07 1021.66 1021.28 1020.84 1020.34 1019.80 1019.22 1018.63 1017.91 1016.72 1015.17 1014.53 1013.92 1012.65 1010.94 1009.93 1009.37 1009.05 1009.05 1008.94 1008.69 1008.59 1008.67 1008.60 1008.72 1008.90 1008.88 1008.61 1008.13 1007.89 1008.10 1008.30 1008.63 1009.47 1010.36 1011.67 1012.28 1013.00 1013.42 1014.30 1013.91 1013.58 1013.61 1014.39 1014.28
1022.64 1022.36 1022.05 1021.69 1021.32 1020.93 1020.48 1019.95 1019.37 1018.85 1018.33 1017.87 1015.72 1014.44 1014.13 1013.03 1011.53 1010.66 1010.36 1010.29 1010.00 1009.75 1009.48 1009.37 1009.40 1008.94 1008.79 1009.24 1009.33 1009.17 1009.12 1008.86 1009.26 1009.58 1010.28 1010.97 1011.90 1012.61 1013.05 1013.58 1014.79 1014.62 1013.92 1013.35 1014.53 1016.20 1015.18
1022.49 1022.25 1022.01 1021.71 1021.36 1021.00 1020.58 1020.11 1019.57 1019.05 1018.56 1018.09 1015.87 1014.53 1014.64 1013.80 1012.06 1011.29 1010.91 1010.92 1010.75 1010.74 1010.72 1010.38 1009.99 1010.05 1009.88 1010.18 1010.27 1010.16 1009.92 1009.99 1010.29 1010.60 1011.00 1012.05 1012.97 1013.71 1014.13 1014.71 1015.62 1015.29 1014.58 1015.44 1016.57 1015.93 1015.79
1022.35 1022.15 1021.95 1021.70 1021.40 1021.11 1020.74 1020.31 1019.85 1019.34 1018.79 1018.05 1016.37 1014.81 1014.32 1014.35 1012.57 1011.65 1011.29 1011.25 1011.13 1011.10 1011.08 1010.80 1010.86 1010.95 1011.40 1011.55 1011.36 1011.02 1011.06 1010.94 1011.23 1011.53 1011.75 1013.30 1013.94 1014.47 1015.34 1015.89 1016.60 1016.35 1016.35 1016.39 1016.18 1016.13 1015.85
Thickness
5708 5712 5715 5718 5721 5725 5729 5734 5739 5743 5748 5752 5757 5761 5765 5769 5773 5777 5781 5784 5786 5788 5790 5793 5795 5798 5808 5806 5823 5862 5861 5860 5859 5856 5845 5844 5839 5841 5828 5842 5851 5841 5848 5857 5860 5860 5860
5706 5708 5712 5715 5719 5722 5726 5731 5736 5741 5746 5751 5755 5759 5763 5768 5773 5777 5782 5785 5786 5789 5791 5792 5795 5797 5801 5800 5868 5866 5863 5858 5859 5853 5849 5852 5847 5855 5842 5841 5838 5853 5852 5850 5857 5857 5859
5703 5706 5709 5713 5716 5720 5724 5729 5734 5739 5743 5749 5753 5757 5761 5766 5772 5777 5782 5786 5788 5790 5792 5793 5795 5799 5804 5816 5870 5869 5867 5861 5863 5858 5847 5862 5862 5849 5844 5832 5857 5854 5835 5845 5849 5856 5850
5700 5703 5707 5710 5714 5718 5723 5727 5732 5737 5742 5747 5752 5757 5762 5767 5772 5778 5783 5787 5790 5793 5794 5795 5796 5800 5800 5864 5868 5867 5870 5862 5867 5867 5862 5868 5868 5850 5841 5850 5844 5833 5832 5804 5845 5855 5853
5697 5700 5704 5708 5712 5717 5721 5725 5731 5736 5741 5747 5752 5757 5762 5768 5773 5779 5785 5789 5792 5795 5796 5796 5796 5798 5808 5865 5852 5867 5872 5856 5861 5863 5866 5872 5858 5834 5835 5816 5806 5824 5800 5816 5831 5857 5850
5693 5697 5701 5705 5709 5714 5719 5724 5729 5735 5740 5746 5752 5758 5763 5768 5774 5780 5787 5793 5796 5797 5798 5800 5806 5794 5828 5837 5859 5866 5876 5871 5854 5852 5846 5842 5830 5809 5812 5801 5768 5798 5819 5832 5822 5841 5845
5690 5694 5698 5702 5707 5712 5717 5722 5728 5734 5740 5746 5753 5759 5764 5769 5774 5779 5788 5797 5793 5791 5800 5808 5822 5826 5848 5864 5873 5860 5870 5861 5856 5841 5810 5828 5799 5784 5806 5820 5826 5829 5827 5818 5834 5852 5842
5687 5690 5695 5700 5705 5710 5715 5720 5726 5733 5739 5745 5752 5759 5765 5771 5775 5778 5779 5793 5816 5825 5805 5833 5836 5839 5857 5864 5838 5851 5868 5835 5832 5808 5822 5810 5790 5820 5835 5837 5831 5828 5820 5811 5832 5851 5843
5683 5687 5692 5696 5702 5707 5713 5718 5725 5732 5738 5745 5751 5758 5765 5772 5777 5779 5791 5807 5834 5834 5803 5831 5842 5839 5849 5855 5838 5840 5852 5840 5824 5810 5814 5798 5818 5843 5833 5829 5819 5819 5814 5816 5814 5837 5841
5679 5684 5689 5693 5699 5704 5710 5717 5723 5730 5737 5744 5750 5756 5763 5774 5780 5794 5801 5832 5835 5835 5774 5816 5827 5844 5853 5851 5831 5867 5864 5841 5830 5812 5821 5818 5841 5837 5831 5823 5826 5795 5834 5833 5824 5809 5780
5675 5680 5685 5690 5696 5702 5707 5714 5722 5728 5736 5743 5750 5755 5760 5761 5772 5787 5816 5832 5837 5822 5738 5832 5836 5876 5858 5833 5847 5847 5869 5845 5814 5817 5823 5808 5824 5824 5819 5824 5835 5813 5835 5824 5827 5807 5802
5672 5677 5681 5687 5693 5700 5706 5713 5720 5727 5734 5742 5749 5754 5758 5767 5769 5800 5816 5824 5819 5764 5750 5819 5839 5829 5827 5833 5836 5849 5842 5852 5844 5819 5823 5822 5848 5839 5838 5844 5839 5841 5825 5819 5817 5799 5756
5668 5673 5678 5683 5690 5696 5703 5711 5718 5726 5734 5743 5751 5755 5754 5765 5786 5810 5814 5803 5758 5749 5840 5817 5815 5827 5819 5814 5819 5827 5818 5809 5793 5784 5782 5815 5824 5846 5848 5824 5836 5824 5800 5746 5748 5750 5747
5665 5669 5675 5681 5687 5693 5700 5708 5716 5724 5733 5744 5755 5763 5773 5780 5795 5802 5799 5773 5745 5800 5810 5846 5834 5827 5810 5821 5817 5823 5815 5799 5817 5809 5790 5783 5782 5833 5846 5827 5812 5809 5797 5748 5740 5740 5767
5661 5666 5672 5678 5684 5691 5698 5705 5713 5722 5731 5741 5756 5775 5779 5796 5793 5792 5775 5744 5773 5802 5821 5822 5837 5818 5811 5826 5826 5820 5813 5812 5825 5823 5788 5792 5804 5847 5853 5853 5833 5816 5791 5816 5783 5793 5774
5658 5663 5669 5675 5681 5688 5694 5701 5709 5718 5729 5736 5746 5765 5785 5804 5798 5786 5760 5754 5783 5816 5823 5824 5806 5825 5808 5824 5819 5820 5822 5839 5834 5848 5843 5822 5781 5831 5845 5852 5847 5830 5835 5783 5777 5759 5757
5655 5660 5666 5671 5677 5683 5689 5696 5703 5712 5726 5737 5746 5757 5799 5805 5798 5770 5745 5768 5794 5821 5823 5811 5806 5803 5811 5809 5818 5813 5819 5830 5842 5836 5841 5829 5804 5801 5829 5822 5808 5813 5801 5807 5797 5785 5756
5651 5656 5661 5667 5672 5678 5684 5690 5696 5705 5719 5738 5746 5744 5796 5802 5756 5763 5759 5781 5801 5809 5823 5816 5819 5816 5806 5812 5808 5806 5802 5817 5841 5828 5799 5809 5803 5775 5797 5833 5832 5823 5801 5787 5753 5762 5778
5647 5651 5656 5662 5668 5673 5679 5685 5691 5697 5703 5710 5730 5756 5795 5792 5743 5755 5778 5789 5805 5801 5800 5807 5806 5808 5813 5803 5792 5804 5806 5824 5829 5813 5791 5800 5776 5749 5768 5799 5818 5798 5809 5806 5796 5788 5764
5641 5646 5651 5656 5662 5667 5675 5683 5690 5696 5699 5702 5725 5740 5766 5773 5776 5766 5767 5784 5785 5805 5798 5803 5798 5806 5802 5796 5806 5798 5800 5811 5816 5805 5806 5805 5780 5762 5735 5755 5776 5771 5787 5800 5790 5761 5766
5636 5641 5646 5652 5658 5664 5671 5680 5689 5697 5704 5707 5731 5745 5752 5745 5757 5766 5777 5776 5781 5777 5794 5797 5786 5789 5779 5772 5776 5769 5782 5785 5797 5791 5797 5786 5755 5760 5763 5772 5775 5772 5770 5777 5769 5773 5757
5633 5638 5642 5648 5653 5659 5667 5676 5686 5698 5711 5718 5723 5725 5744 5749 5768 5767 5765 5769 5771 5772 5778 5769 5763 5776 5773 5749 5753 5751 5765 5766 5767 5777 5771 5772 5739 5747 5739 5760 5759 5750 5755 5748 5745 5750 5755
5631 5635 5639 5644 5650 5656 5663 5671 5679 5690 5709 5716 5722 5731 5729 5744 5755 5757 5754 5760 5761 5767 5772 5771 5765 5759 5752 5756 5766 5769 5773 5773 5770 5761 5755 5752 5738 5725 5709 5735 5736 5715 5709 5716 5722 5718 5709
5629 5633 5637 5642 5647 5652 5658 5665 5672 5678 5683 5691 5711 5715 5719 5725 5741 5744 5754 5760 5749 5750 5743 5758 5763 5749 5756 5771 5773 5775 5774 5770 5768 5764 5766 5743 5731 5722 5701 5708 5682 5689 5709 5710 5706 5697 5697
5628 5632 5636 5640 5644 5649 5655 5661 5668 5674 5680 5689 5704 5706 5709 5709 5737 5744 5747 5746 5751 5745 5743 5750 5753 5755 5764 5757 5741 5740 5739 5748 5759 5766 5759 5752 5730 5704 5686 5684 5702 5696 5692 5686 5678 5681 5687
5627 5630 5634 5638 5642 5646 5652 5657 5664 5670 5679 5691 5703 5708 5706 5706 5718 5734 5731 5738 5728 5731 5738 5745 5755 5761 5756 5737 5732 5721 5715 5734 5725 5732 5740 5732 5722 5698 5691 5677 5667 5665 5688 5694 5687 5654 5674
5627 5630 5633 5636 5640 5644 5649 5654 5661 5667 5673 5679 5695 5706 5703 5704 5722 5727 5717 5718 5730 5726 5724 5733 5737 5740 5752 5727 5719 5717 5711 5736 5704 5704 5702 5698 5696 5686 5680 5676 5658 5675 5685 5691 5644 5632 5659
5626 5629 5632 5635 5638 5642 5646 5651 5657 5663 5669 5675 5692 5703 5698 5698 5716 5725 5728 5717 5718 5716 5707 5721 5724 5723 5722 5713 5710 5712 5705 5710 5707 5711 5707 5691 5680 5669 5670 5661 5641 5670 5670 5643 5639 5648 5646
5624 5627 5630 5633 5636 5639 5643 5648 5653 5659 5665 5672 5685 5698 5704 5696 5709 5725 5727 5729 5726 5724 5715 5719 5718 5717 5710 5703 5705 5708 5699 5701 5696 5679 5710 5673 5679 5667 5661 5648 5650 5652 5647 5645 5643 5638 5639